Regional Weather Roundup
Issued by NWS Bismarck, ND

Home | Current Version | Previous Version | Text Only | Print | Product List | Glossary On
Versions: 1 2 3 4 5 6 7 8 9 10 11 12 13 14 15 16 17 18 19 20 21 22 23 24 25 26 27 28 29 30 31 32 33 34 35 36 37 38 39 40 41 42 43 44 45 46 47 48 49 50
000
ASUS43 KBIS 251210
RWRBIS

NWR BROADCAST TEXT
NATIONAL WEATHER SERVICE BISMARCK ND
700 AM CDT WED MAY 25 2016

NOTE: "FAIR" INDICATES FEW OR NO CLOUDS BELOW 12,000 FEET WITH NO
SIGNIFICANT WEATHER AND/OR OBSTRUCTIONS TO VISIBILITY.


CITY           SKY/WX    TMP DP  RH WIND       PRES   REMARKS
WILLISTON      CLOUDY    52  47  83 NE12      29.84F
MINOT          RAIN      58  55  90 CALM      29.85S FOG
MINOT AFB      CLOUDY    56  54  93 S8        29.84R
BISMARCK       CLOUDY    57  56  96 NE6       29.81S
DICKINSON      CLOUDY    50  48  93 E7        29.81S
GARRISON         N/A     56  54  93 NE6       29.83F
HETTINGER ARPT CLOUDY    50  47  89 W3        29.84R
JAMESTOWN      NOT AVBL
BEACH          LGT RAIN  48  48 100 N7        29.85F
CARRINGTON     FAIR      61  54  77 CALM      29.85R
HAZEN          CLOUDY    55  54  94 E8        29.84F
LINTON         PTSUNNY   64  54  68 S6          N/A
MANDAN         FAIR      55  55 100 E5        29.83S
OAKES            N/A    N/A N/A N/A MISG        N/A
RUGBY          FAIR      57  52  82 NE9       29.82F
STANLEY        CLOUDY    54  48  82 CALM      29.87S
WATFORD CITY   PTSUNNY   50  48  93 NE6       29.84R
$$

CITY           SKY/WX    TMP DP  RH WIND       PRES   REMARKS
GRAND FORKS    CLOUDY    60  53  77 E9        29.81F
GRAND FORKS AF CLOUDY    58  54  87 E5        29.82F
DEVILS LAKE    CLOUDY    63  52  67 SE10      29.83S
FARGO          CLOUDY    66  51  58 E16       29.79F
CANDO          FAIR      61  48  63 E9        29.84F
CAVALIER       FAIR      54  54 100 NE3       29.86F
GRAFTON        FAIR      57  57 100 E5        29.86F
GWINNER        FAIR      63  55  77 NE8       29.78F
LANGDON        FAIR      61  50  67 E10       29.85F
ROLLA          FAIR      55  50  82 NW8       29.87F
WALHALLA       FAIR      52  52 100 NW6       29.87F
$$

CITY           SKY/WX    TMP DP  RH WIND       PRES   REMARKS
ABERDEEN       LGT RAIN  60  56  86 NE10      29.78R
MOBRIDGE       CLOUDY    60  52  74 E15       29.73F
BUFFALO          N/A     52  47  83 SW3       29.77S
RAPID CITY     CLOUDY    47  45  93 W5        29.86R
GLASGOW        MOCLDY    45  41  86 E3        29.88R
SIDNEY         CLOUDY    52  48  87 NW7       29.84R
WOLF POINT     LGT RAIN  51  49  92 W5        29.88S
GLENDIVE       CLOUDY    48  46  93 W9        29.90R
MILES CITY     CLOUDY    51  48  89 NE6       29.88S
BAKER          CLOUDY    50  46  86 W13       29.84R
$$

CITY           SKY/WX    TMP DP  RH WIND       PRES   REMARKS
BILLINGS       CLOUDY    46  44  93 W5        29.91S
GREAT FALLS    CLEAR     38  35  89 S8        29.89S
REGINA         PTCLDY    39  37  93 S2        29.89S
ESTEVAN        CLOUDY    52  43  71 N10       29.85F
$$





USA.gov is the U.S. government's official web portal to all federal, state and local government web resources and services.